Change the Weather History Date:

Friday, February 7, 2014

  Actual Average Record
Temperature  
Mean Temperature 42 °F 48 °F  
Max Temperature 55 °F 60 °F 70 °F (2001)
Min Temperature 28 °F 36 °F 26 °F (2000)
Degree Days  
Heating Degree Days 23 17  
Month to date heating degree days 100 120  
Since 1 July heating degree days 1649 1612  
Moisture  
Dew Point 30 °F    
Average Humidity 67    
Maximum Humidity 92    
Minimum Humidity 41    
Precipitation  
Precipitation 0.00 in 0.16 in 1.29 in (2013)
Month to date precipitation 1.06 1.08  
Year to date precipitation 4.26 5.63  
Snow  
Snow 0.00 in - - ()
Month to date snowfall 0.0  
Since 1 July snowfall 0.3  
Snow Depth 0.00 in    
Sea Level Pressure  
Sea Level Pressure 30.29 in    
Wind  
Wind Speed 4 mph (North)    
Max Wind Speed 13 mph    
Max Gust Speed 17 mph    
Visibility 8 miles    
Events      
T = Trace of Precipitation, MM = Missing Value Source: NWS Daily Summary

Daily Weather History Graph

Daily Weather History Graph

Search for Another Location

Airport or City:

Trip Planner

Search our weather history database for the weather conditions in past years. The results will help you decide how hot, cold, wet, or windy it might be!

Date:

Astronomy

Feb. 07, 2014 Rise Set
Actual Time 6:33 AM CST 5:23 PM CST
Civil Twilight 6:07 AM CST 5:49 PM CST
Nautical Twilight 5:38 AM CST 6:17 PM CST
Astronomical Twilight 5:10 AM CST 6:46 PM CST
Moon 11:38 AM CST (2/7) 12:45 AM CST (2/7)
Length of Visible Light 11h 41m
Length of Day
10h 50m
First Quarter, 59% of the Moon is Illuminated
Feb 7
First Quarter
Feb 14
Full
Feb 22
Last Quarter
Mar 1
New
Mar 8
First Quarter

Hourly Weather History & Observations

Time (CST) Temp. Windchill Dew Point Humidity Pressure Visibility Wind Dir Wind Speed Gust Speed Precip Events Conditions
12:03 AM 30.0 °F - 28.0 °F 92% 30.29 in 2.0 mi Calm Calm - N/A   Clear
12:22 AM 30.0 °F - 28.0 °F 92% 30.29 in 3.0 mi Calm Calm - N/A   Clear
12:53 AM 30.0 °F 24.1 °F 27.0 °F 88% 30.30 in 6.0 mi NNW 5.8 mph - N/A   Clear
1:53 AM 30.9 °F 22.2 °F 27.0 °F 85% 30.30 in 8.0 mi North 10.4 mph - N/A   Clear
2:53 AM 30.0 °F 25.2 °F 27.0 °F 88% 30.30 in 6.0 mi North 4.6 mph - N/A   Clear
3:53 AM 28.9 °F - 26.1 °F 89% 30.30 in 4.0 mi Calm Calm - N/A   Clear
4:53 AM 28.9 °F - 26.1 °F 89% 30.31 in 3.0 mi Calm Calm - N/A   Clear
5:53 AM 28.9 °F 25.2 °F 26.1 °F 89% 30.32 in 5.0 mi North 3.5 mph - N/A   Clear
6:53 AM 30.0 °F 26.5 °F 26.1 °F 85% 30.35 in 5.0 mi North 3.5 mph - N/A   Clear
7:53 AM 33.1 °F 28.7 °F 28.9 °F 85% 30.36 in 6.0 mi NNE 4.6 mph - N/A   Clear
8:53 AM 36.0 °F 30.3 °F 30.0 °F 79% 30.35 in 7.0 mi NNE 6.9 mph - N/A   Clear
9:53 AM 41.0 °F 38.0 °F 32.0 °F 70% 30.35 in 10.0 mi NE 4.6 mph - N/A   Clear
10:53 AM 46.9 °F - 33.1 °F 59% 30.35 in 10.0 mi Calm Calm - N/A   Clear
11:53 AM 52.0 °F - 32.0 °F 47% 30.31 in 10.0 mi Variable 6.9 mph - N/A   Clear
12:53 PM 53.1 °F - 30.0 °F 41% 30.27 in 10.0 mi North 10.4 mph - N/A   Clear
1:53 PM 54.0 °F - 32.0 °F 43% 30.26 in 10.0 mi North 9.2 mph - N/A   Clear
2:53 PM 55.0 °F - 32.0 °F 42% 30.24 in 10.0 mi North 8.1 mph - N/A   Clear
3:53 PM 54.0 °F - 30.9 °F 41% 30.24 in 10.0 mi NNE 9.2 mph - N/A   Clear
4:53 PM 50.0 °F - 30.9 °F 48% 30.24 in 10.0 mi North 8.1 mph - N/A   Clear
5:53 PM 46.0 °F 44.8 °F 33.1 °F 61% 30.25 in 10.0 mi NW 3.5 mph - N/A   Clear
6:53 PM 41.0 °F - 33.1 °F 73% 30.26 in 10.0 mi Calm Calm - N/A   Clear
7:53 PM 39.0 °F - 33.1 °F 79% 30.25 in 10.0 mi Calm Calm - N/A   Clear
8:53 PM 36.0 °F - 32.0 °F 86% 30.24 in 10.0 mi Calm Calm - N/A   Clear
9:53 PM 37.9 °F 35.5 °F 33.1 °F 83% 30.25 in 10.0 mi North 3.5 mph - N/A   Scattered Clouds
10:53 PM 39.0 °F - 34.0 °F 82% 30.25 in 10.0 mi Calm Calm - N/A   Scattered Clouds
11:53 PM 41.0 °F - 34.0 °F 76% 30.23 in 10.0 mi Calm Calm - N/A   Scattered Clouds